Location: Condor
(52.3263°N, 114.5541°W)
Time: 21:08:08
(UTC+00:00)

Oscar 19 - Pass Details

Date: 16 December 2023
Orbit: 771 x 789 km, 98.9° (Epoch: 04 March)

Event Time Altitude Azimuth Distance (km) Brightness Sun altitude
Rises 14:20:17 0° 7° (N) 3,283 13.7 -11.5°
Reaches altitude 10° 14:23:10 10° 351° (N) 2,354 12.8 -11.1°
Maximum altitude 14:26:47 20° 307° (NW) 1,778 11.9 -10.6°
Drops below altitude 10° 14:30:24 10° 262° (W) 2,351 12.6 -10.1°
Sets 14:33:18 0° 246° (WSW) 3,278 13.5 -9.7°
